• In Italy
  • List of Countries
  • For 7 days
  • Water Temperature
  • Satellite Maps
  • Weather Map
  • Weather Widgets
  • user-avatar
    Login

    Hourly Weather Herāt

    Today, 20 February, Tuesday

    Time Temperature Precipitation Wind Pressure Humidity
    00:00 +13°C° 0.2 mm 5 mps 675 mmHg 45%
    01:00 +12°C° 0.2 mm 5 mps 675 mmHg 47%
    02:00 +11°C° 0.1 mm 4 mps 675 mmHg 50%
    03:00 +11°C° 0.1 mm 4 mps 675 mmHg 52%
    04:00 +8°C° 0 mm 5 mps 675 mmHg 59%
    05:00 +7°C° 0.1 mm 4 mps 675 mmHg 62%
    06:00 +6°C° 0.1 mm 4 mps 675 mmHg 64%
    07:00 +6°C° 0.1 mm 4 mps 676 mmHg 66%
    08:00 +7°C° 0.1 mm 4 mps 676 mmHg 63%
    09:00 +8°C° 0.1 mm 4 mps 677 mmHg 59%
    10:00 +10°C° 0.1 mm 4 mps 677 mmHg 56%
    11:00 +11°C° 0 mm 4 mps 678 mmHg 53%
    12:00 +12°C° 0 mm 4 mps 678 mmHg 50%
    13:00 +13°C° 0 mm 4 mps 678 mmHg 47%
    14:00 +13°C° 0 mm 3 mps 678 mmHg 46%
    15:00 +13°C° 0 mm 3 mps 678 mmHg 46%
    16:00 +13°C° 0 mm 3 mps 678 mmHg 45%
    17:00 +12°C° 0 mm 3 mps 678 mmHg 49%
    18:00 +11°C° 0 mm 3 mps 679 mmHg 52%
    19:00 +10°C° 0 mm 2 mps 679 mmHg 56%
    20:00 +10°C° 0 mm 2 mps 679 mmHg 58%
    21:00 +10°C° 0 mm 2 mps 679 mmHg 60%
    22:00 +10°C° 0 mm 1 mps 679 mmHg 62%
    23:00 +10°C° 0 mm 1 mps 679 mmHg 61%

    Tomorrow, 21 February, Wednesday

    Time Temperature Precipitation Wind Pressure Humidity
    00:00 +9°C° 0 mm 1 mps 679 mmHg 61%
    01:00 +9°C° 0 mm 1 mps 679 mmHg 60%
    02:00 +9°C° 0 mm 1 mps 679 mmHg 60%
    03:00 +9°C° 0 mm 1 mps 679 mmHg 59%
    04:00 +8°C° 0 mm 1 mps 679 mmHg 59%
    05:00 +8°C° 0 mm 1 mps 679 mmHg 58%
    06:00 +8°C° 0 mm 1 mps 679 mmHg 58%
    07:00 +8°C° 0 mm 1 mps 680 mmHg 57%
    08:00 +10°C° 0 mm 1 mps 680 mmHg 50%
    09:00 +12°C° 0 mm 1 mps 680 mmHg 43%
    10:00 +13°C° 0 mm 1 mps 681 mmHg 36%
    11:00 +14°C° 0 mm 2 mps 680 mmHg 33%
    12:00 +15°C° 0 mm 2 mps 680 mmHg 30%
    13:00 +16°C° 0 mm 2 mps 680 mmHg 27%
    14:00 +17°C° 0 mm 2 mps 679 mmHg 27%
    15:00 +17°C° 0 mm 2 mps 679 mmHg 26%
    16:00 +17°C° 0 mm 2 mps 678 mmHg 26%
    17:00 +16°C° 0 mm 2 mps 678 mmHg 29%
    18:00 +15°C° 0 mm 1 mps 678 mmHg 33%
    19:00 +14°C° 0 mm 1 mps 678 mmHg 36%
    20:00 +14°C° 0 mm 1 mps 678 mmHg 37%
    21:00 +14°C° 0 mm 1 mps 678 mmHg 38%
    22:00 +14°C° 0 mm 1 mps 678 mmHg 39%
    23:00 +13°C° 0 mm 1 mps 678 mmHg 38%

    Day after tomorrow, 22 February, Thursday

    Time Temperature Precipitation Wind Pressure Humidity
    00:00 +13°C° 0 mm 1 mps 678 mmHg 37%
    01:00 +12°C° 0 mm 1 mps 678 mmHg 36%
    02:00 +12°C° 0 mm 1 mps 677 mmHg 35%
    03:00 +12°C° 0 mm 1 mps 677 mmHg 35%
    04:00 +11°C° 0 mm 1 mps 677 mmHg 34%
    05:00 +12°C° 0 mm 1 mps 677 mmHg 33%
    06:00 +12°C° 0 mm 1 mps 677 mmHg 32%
    07:00 +12°C° 0 mm 1 mps 677 mmHg 30%
    08:00 +14°C° 0 mm 2 mps 678 mmHg 27%
    09:00 +15°C° 0 mm 2 mps 678 mmHg 24%
    10:00 +17°C° 0 mm 2 mps 679 mmHg 21%
    11:00 +18°C° 0 mm 2 mps 678 mmHg 20%
    12:00 +19°C° 0 mm 3 mps 678 mmHg 20%
    13:00 +20°C° 0 mm 3 mps 678 mmHg 20%
    14:00 +20°C° 0 mm 3 mps 678 mmHg 20%
    15:00 +20°C° 0 mm 3 mps 677 mmHg 21%
    16:00 +20°C° 0 mm 3 mps 677 mmHg 21%
    17:00 +19°C° 0 mm 3 mps 677 mmHg 26%
    18:00 +17°C° 0 mm 2 mps 677 mmHg 30%
    19:00 +16°C° 0 mm 1 mps 677 mmHg 34%
    20:00 +16°C° 0 mm 1 mps 677 mmHg 35%
    21:00 +15°C° 0 mm 2 mps 677 mmHg 35%
    22:00 +15°C° 0 mm 2 mps 677 mmHg 36%
    23:00 +14°C° 0 mm 2 mps 677 mmHg 36%

    23 February, Friday

    Time Temperature Precipitation Wind Pressure Humidity
    00:00 +14°C° 0 mm 1 mps 676 mmHg 35%
    01:00 +14°C° 0 mm 1 mps 676 mmHg 35%
    02:00 +13°C° 0 mm 1 mps 676 mmHg 36%
    03:00 +13°C° 0 mm 2 mps 675 mmHg 36%
    04:00 +13°C° 0 mm 2 mps 675 mmHg 37%
    05:00 +13°C° 0 mm 2 mps 675 mmHg 38%
    06:00 +13°C° 0 mm 2 mps 675 mmHg 38%
    07:00 +13°C° 0 mm 2 mps 675 mmHg 39%
    08:00 +15°C° 0 mm 2 mps 676 mmHg 35%
    09:00 +17°C° 0 mm 2 mps 676 mmHg 32%
    10:00 +18°C° 0 mm 2 mps 676 mmHg 29%
    11:00 +19°C° 0 mm 3 mps 676 mmHg 28%
    12:00 +20°C° 0 mm 3 mps 675 mmHg 27%
    13:00 +21°C° 0 mm 3 mps 675 mmHg 26%
    14:00 +20°C° 0.1 mm 4 mps 675 mmHg 28%
    15:00 +19°C° 0.1 mm 4 mps 674 mmHg 31%
    16:00 +19°C° 0.1 mm 4 mps 674 mmHg 33%
    17:00 +18°C° 0.2 mm 3 mps 674 mmHg 36%
    18:00 +17°C° 0.2 mm 3 mps 674 mmHg 40%
    19:00 +16°C° 0.2 mm 2 mps 675 mmHg 43%
    20:00 +16°C° 0.2 mm 2 mps 675 mmHg 46%
    21:00 +15°C° 0.2 mm 2 mps 675 mmHg 49%
    22:00 +14°C° 0.2 mm 2 mps 675 mmHg 53%
    23:00 +14°C° 0.3 mm 2 mps 674 mmHg 58%

    24 February, Saturday

    Time Temperature Precipitation Wind Pressure Humidity
    00:00 +13°C° 0.3 mm 2 mps 674 mmHg 63%
    01:00 +12°C° 0.3 mm 2 mps 674 mmHg 68%
    02:00 +12°C° 0.5 mm 2 mps 674 mmHg 71%
    03:00 +12°C° 0.5 mm 1 mps 674 mmHg 75%
    04:00 +11°C° 0.5 mm 1 mps 674 mmHg 79%
    05:00 +11°C° 0.1 mm 1 mps 674 mmHg 78%
    06:00 +10°C° 0.1 mm 2 mps 675 mmHg 77%
    07:00 +10°C° 0.1 mm 2 mps 675 mmHg 77%
    08:00 +12°C° 0.2 mm 3 mps 676 mmHg 70%
    09:00 +13°C° 0.2 mm 3 mps 676 mmHg 64%
    10:00 +15°C° 0.2 mm 4 mps 677 mmHg 57%
    11:00 +17°C° 0.3 mm 4 mps 676 mmHg 53%
    12:00 +17°C° 0.3 mm 5 mps 676 mmHg 49%
    13:00 +19°C° 0.3 mm 5 mps 676 mmHg 44%
    14:00 +17°C° 0.4 mm 5 mps 676 mmHg 45%
    15:00 +17°C° 0.4 mm 5 mps 676 mmHg 45%
    16:00 +17°C° 0.4 mm 5 mps 675 mmHg 45%
    17:00 +16°C° 0.6 mm 5 mps 676 mmHg 50%
    18:00 +15°C° 0.6 mm 5 mps 676 mmHg 55%
    19:00 +15°C° 0.6 mm 5 mps 676 mmHg 61%
    20:00 +14°C° 0.8 mm 4 mps 677 mmHg 62%
    21:00 +14°C° 0.8 mm 4 mps 677 mmHg 63%
    22:00 +13°C° 0.8 mm 3 mps 677 mmHg 65%
    23:00 +13°C° 0.6 mm 3 mps 677 mmHg 66%

    25 February, Sunday

    Time Temperature Precipitation Wind Pressure Humidity
    00:00 +14°C° 0.6 mm 2 mps 677 mmHg 67%
    01:00 +13°C° 0.6 mm 2 mps 677 mmHg 68%
    02:00 +13°C° 0.5 mm 2 mps 677 mmHg 69%
    03:00 +13°C° 0.5 mm 2 mps 677 mmHg 69%
    04:00 +13°C° 0.5 mm 2 mps 677 mmHg 69%
    05:00 +13°C° 0.4 mm 2 mps 677 mmHg 69%
    06:00 +13°C° 0.4 mm 2 mps 677 mmHg 70%
    07:00 +13°C° 0.4 mm 2 mps 678 mmHg 70%
    08:00 +14°C° 0.2 mm 2 mps 678 mmHg 63%
    09:00 +16°C° 0.2 mm 2 mps 679 mmHg 57%
    10:00 +17°C° 0.2 mm 3 mps 679 mmHg 51%
    11:00 +18°C° 0.1 mm 4 mps 679 mmHg 48%
    12:00 +19°C° 0.1 mm 5 mps 679 mmHg 46%
    13:00 +20°C° 0.1 mm 5 mps 678 mmHg 44%
    14:00 +19°C° 0.4 mm 5 mps 678 mmHg 48%
    15:00 +19°C° 0.4 mm 5 mps 678 mmHg 52%
    16:00 +17°C° 0.4 mm 5 mps 677 mmHg 56%
    17:00 +17°C° 0.4 mm 4 mps 677 mmHg 60%
    18:00 +17°C° 0.4 mm 3 mps 677 mmHg 64%
    19:00 +16°C° 0.4 mm 2 mps 677 mmHg 68%
    20:00 +16°C° 0.3 mm 2 mps 677 mmHg 69%
    21:00 +16°C° 0.3 mm 2 mps 677 mmHg 71%
    22:00 +15°C° 0.3 mm 2 mps 677 mmHg 72%
    23:00 +15°C° 0.7 mm 2 mps 677 mmHg 74%
    Show more